Current Version              Previous Version:    01  02  03  04  05  06  07  08  09  10  11  12  13  14  15  16  17  18  19  20  21  22  23  24  25  26  27  28  29  30  
   31  32  33  34  35  36  37  38  39  40  41  42  43  44  45  46  47  48  49  50  51  52  53  54  55  56  57  58  59  60  

[Printable]
524
ASUS44 KFWD 310501
RWRTX
NORTH TEXAS HOURLY WEATHER ROUNDUP
NATIONAL WEATHER SERVICE FORT WORTH TX
1200 AM CDT FRI OCT 31 2014

NOTE: "FAIR" INDICATES FEW OR NO CLOUDS BELOW 12,000 FEET WITH NO
SIGNIFICANT WEATHER AND/OR OBSTRUCTIONS TO VISIBILITY.

TXZ118-119-310600-
DALLAS/FORT WORTH METROPLEX

CITY           SKY/WX    TMP DP  RH WIND       PRES   REMARKS
DFW AIRPORT    CLEAR     63  53  70 N9        30.17R
DALLAS LOVE    CLEAR     61  57  87 N6        30.17R
FTW MEACHAM    CLEAR     64  47  53 N9        30.17R
DAL-EXECUTIVE  CLEAR     62  56  80 NW8       30.16R
FTW-ALLIANCE   CLEAR     59  47  64 N6        30.18R
FTW-NAS-JRB    CLEAR     67  51  56 NW8       30.22R
FTW-SPINKS     CLEAR     60  56  85 NW6       30.19R
ARLINGTON      CLEAR     66  54  65 NW9       30.17R
GRAND PRAIRIE  CLEAR     67  56  65 NW5       30.18R
ADDISON        CLEAR     63  56  79 N8        30.19R
MESQUITE       CLEAR     60  57  91 N5        30.16S
LANCASTER      CLEAR     61  50  68 NW6       30.17R
$$

TXZ091>094-102>105-117-120-121-131>134-310600-
NORTH CENTRAL TEXAS

CITY           SKY/WX    TMP DP  RH WIND       PRES   REMARKS
SHRMAN/DENISON CLEAR     55  46  72 CALM      30.19S
GAINESVILLE    CLEAR     52  42  68 NW8       30.21S
BRIDGEPORT     CLEAR     57  43  59 CALM      30.22S
DECATUR        CLEAR     61  39  44 N6        30.21R
DENTON         CLEAR     57  45  64 N5        30.18R
MCKINNEY       CLEAR     58  49  72 N7        30.17R
GREENVILLE     CLEAR     61  46  59 N9        30.16R
ROCKWALL       CLEAR     59  55  88 N6        30.15R
TERRELL        CLEAR     63  55  75 NW8       30.15R
WAXAHACHIE     CLEAR     60  55  84 NW6       30.18R
GRANBURY       CLEAR     63  61  93 NW3       30.20R FOG
$$

TXZ083>090-098>101-113>116-127>130-139>142-154-155-310600-
WESTERN NORTH TEXAS

CITY           SKY/WX    TMP DP  RH WIND       PRES   REMARKS
WICHITA FALLS  CLEAR     56  37  49 N9        30.23R
WF-KICKAPOO    CLEAR     58  37  44 CALM      30.24S
VERNON         CLEAR     55  36  47 N6        30.27R
ABILENE        PTCLDY    68  40  35 NE9       30.25R
ABILENE-DYESS  PTCLDY    66  44  45 NE9       30.24R
MINERAL WELLS  CLEAR     61  56  83 N6        30.19R
STEPHENVILLE   PTCLDY    64  60  89 NW3       30.22R
COMANCHE       PTCLDY    64  64 100 N5        30.20R
COLEMAN        CLOUDY    69  61  77 NE10      30.21R
$$

TXZ143>147-156>162-174-175-310600-
CENTRAL TEXAS

CITY           SKY/WX    TMP DP  RH WIND       PRES   REMARKS
WACO           CLOUDY    66  56  70 NW6       30.15R
WACO-MCGREGOR  PTCLDY    64  52  63 NW7       30.16R
CORSICANA      PTCLDY    62  52  69 NW6       30.15R
MEXIA          MOCLDY    65  53  66 N3        30.14R
HEARNE         CLOUDY    61  55  81 CALM      30.13R
CAMERON        CLOUDY    65  58  77 CALM      30.13S
TEMPLE         CLOUDY    64  55  72 NW8       30.14R
KILLEEN        MOCLDY    66  58  74 NW3       30.15R
KILLEEN-SKYLRK MOCLDY    66  54  63 N5        30.12R
GATESVILLE     PTCLDY    64  57  77 CALM      30.18R
HAMILTON       CLOUDY    65  59  81 NW7       30.19R
LAMPASAS       MOCLDY    68  62  80 N5        30.15R
$$

TXZ095>097-106>112-122>126-135>138-148>153-164>167-310600-
EAST TEXAS

CITY           SKY/WX    TMP DP  RH WIND       PRES   REMARKS
PARIS          CLEAR     57  43  58 N6        30.15R
SULPHUR SPRNGS CLEAR     61  52  72 NW8       30.16R
MOUNT PLEASANT CLEAR     52  50  95 CALM      30.13S
MINEOLA        CLEAR     55  54  94 CALM      30.14R
TYLER          CLEAR     61  52  72 NW5       30.12R
LONGVIEW       CLEAR     54  48  80 CALM      30.10S
MARSHALL       CLEAR     53  51  92 CALM      30.12S
ATHENS         CLEAR     55  54  94 CALM      30.12S
PALESTINE      PTCLDY    58  55  90 CALM      30.14S
JACKSONVILLE   CLEAR     65  45  49 W3        30.14S
HENDERSON      CLEAR     51  50  97 CALM      30.12S
NACOGDOCHES    PTCLDY    54  48  82 CALM      30.11F
LUFKIN         MOCLDY    58  52  80 CALM      30.11S
$$

SUPPLEMENTAL OBSERVATIONS (CENTRAL)

CITY           SKY/WX    TMP DP  RH WIND       PRES   REMARKS
$$

SUPPLEMENTAL OBSERVATIONS (WEST)

CITY           SKY/WX    TMP DP  RH WIND       PRES   REMARKS
$$

SUPPLEMENTAL OBSERVATIONS (EAST)

CITY           SKY/WX    TMP DP  RH WIND       PRES   REMARKS
$$

SUPPLEMENTAL OBSERVATIONS ARE A COLLECTION OF AUTOMATED INSTRUMENTS
THAT ARE MAINTAINED BY A VARIETY OF FEDERAL AND STATE AGENCIES.
CERTAIN ELEMENTS...SUCH AS HUMIDITY VALUES AND SUSTAINED WIND
SPEEDS...MAY BE APPROXIMATED.